Location: Arbon
(43.0005°N, 0.7472°E)
Time: 08:23:20
(UTC+00:00)

SR - Pass Details

Date: 27 November 2020
Orbit: 575 x 880 km, 66.7° (Epoch: 27 January)

Event Time Altitude Azimuth Distance (km) Brightness Sun altitude
Rises 04:57:28 0° 314° (NW) 3,239 - -22.7°
Reaches altitude 10° 05:00:20 10° 299° (WNW) 2,361 - -22.2°
Maximum altitude 05:04:18 21° 252° (WSW) 1,777 - -21.5°
Exits shadow 05:06:54 15° 218° (SW) 2,089 ? -21.0°
Drops below altitude 10° 05:08:26 10° 205° (SSW) 2,470 ? -20.7°
Sets 05:11:32 0° 190° (S) 3,432 ? -20.2°
